Location: Dos Palmas
(32.4468°N, 116.8732°W)
Time: 05:28:24
(UTC+00:00)

Cosmos 1758 - Pass Details

Date: 20 June 2021
Orbit: 539 x 562 km, 82.5° (Epoch: 29 July)

Event Time Altitude Azimuth Distance (km) Brightness Sun altitude
Rises 04:26:56 0° 353° (N) 2,700 7.7 -16.2°
Reaches altitude 10° 04:29:06 10° 353° (N) 1,803 6.7 -16.5°
Maximum altitude 04:33:04 88° 269° (W) 543 3.2 -17.1°
Enters shadow 04:34:58 30° 176° (S) 986 4.2 -17.4°
